Lid_Strength_Index
2 1 0 0 0 0 0 1 0 0 0 0 1 0 0 0 -0 -0 -0 -2 -2 -2 -2 -2 -2 -2 -2 -1 -1 -1 -1 -1 -1 -1 -1 -1 -1 -1 -1 -1 -1 -1 -1
1 0 0 0 0 0 0 1 1 0 1 0 1 0 1 1 0 0 0 -0 -2 -2 -2 -2 -2 -2 -2 -2 -2 -1 -1 -1 -1 -1 -1 -1 -1 -1 -1 -1 -1 -1 -1
0 0 1 0 0 0 0 1 0 1 2 1 2 1 1 1 -0 -0 -0 0 -1 -2 -2 -2 -2 -2 -1 -1 -1 -1 -1 -2 -1 -1 -1 -1 -1 -1 -1 -1 -1 -1 -1
0 1 1 1 0 0 0 1 1 1 2 1 1 2 1 0 0 -0 -0 -0 -0 -0 -1 -2 -2 -2 -1 -1 -1 -1 -1 -1 -2 -2 -2 -1 -1 -1 -1 -1 -1 -1 -1
1 2 1 1 1 1 0 1 1 1 2 1 1 1 2 1 0 -0 0 -0 0 -0 0 -1 -2 -2 -1 -2 -1 -1 -1 -2 -2 -1 -1 -1 -2 -2 -1 -2 -2 -2 -1
0 1 1 1 2 1 1 1 2 2 2 2 1 1 2 1 1 1 0 -0 0 0 0 -0 -0 -1 -2 -2 -2 -1 -1 -1 -2 -1 -2 -2 -2 -2 -2 -2 -2 -2 -1
-0 0 0 1 1 1 1 1 1 2 2 2 2 2 2 1 2 1 1 1 1 0 0 0 -0 0 -1 -2 -2 -2 -1 -1 -1 -1 -2 -2 -2 -2 -2 -2 -1 -1 -1
0 0 0 1 1 1 1 1 1 2 2 2 3 3 5 4 2 2 1 0 1 1 0 -0 0 0 0 0 -0 -2 -2 -1 -1 -1 -1 -1 -1 -1 -1 -2 -2 -2 -2
-0 0 0 0 1 1 1 1 1 2 3 2 2 4 5 6 5 3 3 2 1 1 1 0 0 0 0 -0 -1 -1 -2 -1 -1 -1 -1 -1 -2 -2 -2 -2 -3 -3 -3
0 0 0 0 1 1 1 1 1 2 3 4 4 1 2 3 5 6 3 4 3 2 2 0 0 1 -0 0 -1 -1 -2 -2 -2 -3 -2 -2 -2 -2 -2 -2 -3 -2 -2
0 0 0 1 1 1 1 1 1 1 2 3 4 3 3 3 3 4 6 4 3 2 2 1 0 0 1 -0 -0 -1 -2 -3 -3 -3 -3 -2 -2 -2 -2 -2 -2 -2 -2
1 0 0 0 0 0 1 2 1 2 1 2 1 3 3 4 4 4 4 4 4 3 2 2 1 0 1 0 -1 -2 -3 -2 -2 -3 -3 -3 -3 -2 -2 -2 -2 -1 -1
1 1 0 1 1 1 1 1 1 2 2 1 1 2 2 3 3 4 3 4 4 3 3 2 2 1 1 2 0 -2 -2 -2 -1 -1 -2 -3 -3 -3 -3 -3 -2 -2 -1
1 0 0 0 1 0 0 0 1 1 2 1 1 2 2 1 1 3 3 4 5 5 4 3 2 2 1 2 1 -2 -0 -1 -1 -1 -1 -1 -2 -3 -3 -3 -3 -3 -2
0 0 0 0 1 1 0 1 1 1 1 1 1 1 2 2 2 2 3 3 4 6 5 3 3 2 1 1 1 0 2 -1 -1 -1 0 -0 -1 -1 -2 -2 -3 -3 -3
0 1 1 0 0 1 1 1 1 1 1 2 2 2 1 1 1 2 3 3 3 5 6 3 2 2 1 0 0 1 2 0 -0 0 0 1 0 -0 -1 -1 -1 -2 -2
2 1 1 1 1 1 1 1 1 1 2 1 1 2 2 1 1 2 2 3 3 3 4 4 2 2 2 1 1 1 2 2 2 1 1 1 1 1 -0 -1 -1 -1 -2
1 1 1 1 1 1 1 1 1 1 1 2 1 2 2 1 2 2 2 3 3 3 4 5 3 2 2 2 1 1 2 1 1 1 1 1 2 2 1 1 0 0 -1
1 1 1 1 1 1 1 1 1 1 1 1 1 2 2 2 2 2 4 2 2 3 3 4 4 2 2 2 2 2 2 1 0 -0 1 2 2 2 2 2 2 2 2
2 1 1 1 1 1 1 1 1 1 1 1 1 1 1 2 2 2 3 3 2 2 3 3 4 2 2 1 2 2 2 2 2 -0 0 1 1 1 1 2 2 2 3
1 2 1 1 1 1 1 1 1 1 1 1 1 1 1 1 2 2 2 3 3 3 3 4 4 4 3 3 3 2 2 1 1 1 2 3 2 2 1 1 1 1 3
1 1 1 1 1 1 3 4 1 1 1 1 1 1 1 2 3 4 4 4 3 4 3 3 3 3 3 2 2 2 2 3 4 1 2 2 2 3 2 2 1 2 3
1 1 1 1 1 1 5 5 4 1 1 1 1 1 1 1 2 1 4 5 5 5 4 4 2 2 2 2 2 2 2 2 3 2 1 2 2 3 1 1 2 2 3
2 2 2 1 1 1 6 7 5 1 1 1 1 1 1 1 1 1 1 2 3 3 4 4 3 4 2 1 1 1 1 2 2 2 2 3 3 3 2 2 2 2 3
2 2 1 1 2 1 7 7 6 2 1 1 1 1 1 1 3 6 1 2 2 2 3 6 5 5 6 5 3 2 3 3 4 3 2 3 3 3 2 3 3 2 3
2 1 2 1 3 1 7 9 7 2 2 2 1 1 5 2 6 8 3 2 3 2 2 2 4 5 6 5 5 3 3 3 3 4 2 3 3 3 4 3 3 4 3